Location: �perlecques
(50.8057°N, 2.1521°E)
Time: 07:03:07
(UTC+00:00)

STARS - Pass Details

Date: 04 April 2023
Orbit: 616 x 630 km, 98.1° (Epoch: 03 June)

Event Time Altitude Azimuth Distance (km) Brightness Sun altitude
Rises 23:11:20 0° 15° (NNE) 2,919 ? -32.6°
Reaches altitude 10° 23:13:33 10° 17° (NNE) 2,010 ? -32.6°
Enters shadow 23:15:17 24° 20° (NNE) 1,321 ? -32.7°
